Lid_Strength_Index
2 4 9 10 14 14 16 13 11 11 10 9 9 8 8 7 8 11 2 1 1 1 -0 -0 -1 -1 -1 -1 -1 -1 -1 -1 -1 -1 -1 -1 -1 -1 -1 -1 -1 -1 -1 -2 -2 -1 -1 -1 -1
3 8 10 12 15 18 16 13 12 10 9 9 9 8 7 8 5 5 4 1 0 0 -0 -0 -1 -1 -1 -1 -1 -1 -1 -1 -1 -1 -1 -1 -1 -1 -1 -1 -1 -1 -1 -2 -2 -1 -1 -1 -1
6 9 13 15 17 17 16 12 11 10 9 9 9 7 6 7 4 4 2 1 0 0 -0 -0 -1 -1 -1 -1 -1 -1 -1 -1 -1 -1 -1 -1 -1 -1 -1 -1 -1 -1 -2 -2 -2 -1 -1 -1 -1
9 11 13 17 18 15 14 11 11 10 9 9 8 8 5 3 4 2 1 0 1 0 -0 -0 -1 -1 -1 -1 -1 -1 -1 -1 -1 -1 -1 -1 -1 -1 -1 -1 -1 -2 -2 -2 -2 -2 -1 -2 -2
10 12 16 18 17 15 12 11 11 11 11 10 9 7 7 4 2 1 1 1 1 1 0 -0 -1 -1 -1 -1 -1 -1 -1 -1 -1 -1 -1 -1 -1 -1 -1 -1 -2 -2 -2 -2 -2 -2 -2 -2 -2
12 13 17 17 15 14 12 11 12 11 11 9 9 7 7 3 3 2 1 1 0 1 0 -0 -1 -1 -1 -1 -1 -1 -1 -1 -1 -1 -1 -1 -1 -1 -1 -2 -2 -2 -2 -2 -2 -2 -2 -2 -3
13 15 18 17 15 13 12 10 12 11 11 10 6 8 7 4 2 1 1 1 0 0 0 -0 -0 -0 -1 -1 -1 -1 -1 -1 -1 -1 -1 -1 -1 -1 -1 -1 -2 -2 -2 -2 -2 -2 -3 -3 -3
12 14 17 16 15 13 10 9 10 10 10 8 4 8 8 4 2 1 1 1 1 1 0 0 0 -0 -0 -0 -1 -1 -1 -1 -1 -1 -1 -1 -1 -1 -1 -1 -1 -2 -2 -2 -2 -2 -2 -3 -3
12 16 19 17 14 13 10 10 9 8 10 8 5 5 4 3 2 2 3 2 2 1 1 0 0 0 -0 -0 -0 -1 -1 -1 -1 -1 -1 -1 -0 -0 -1 -1 -1 -1 -1 -2 -2 -2 -2 -2 -2
14 18 16 14 12 13 10 10 9 10 11 11 6 4 3 3 3 4 4 4 3 2 1 0 0 0 0 -0 -0 -0 -0 -0 -0 -0 -0 -0 0 -0 -1 -1 -1 -1 -1 -2 -2 -2 -2 -2 -1
15 17 14 13 12 11 11 10 8 10 12 10 9 6 4 4 4 4 4 3 3 2 1 1 0 0 0 0 -0 -0 -0 -0 -0 -0 -0 -0 -0 -0 -0 -0 -0 -0 -1 -0 -1 -1 -1 -1 -1
17 14 13 13 12 12 12 9 9 9 10 9 9 6 4 5 5 4 4 3 3 2 2 1 0 1 0 -0 0 -0 0 -0 -0 -0 -0 -0 -0 -0 -0 -0 -0 -0 -0 -0 -0 -0 -1 -1 -1
16 14 14 13 12 12 11 11 10 9 8 8 9 5 5 5 4 4 3 3 2 3 2 1 0 1 0 0 0 0 0 -0 -0 -0 -0 -0 0 0 -0 -0 -0 0 -1 -0 -0 -0 -0 -0 -0
13 13 13 13 13 13 13 11 9 9 8 9 9 5 5 5 4 4 3 3 3 2 2 1 1 0 0 0 0 0 0 0 0 -0 -0 -0 0 1 1 1 0 -0 0 -1 -0 -0 -0 0 -0
12 14 13 12 12 13 11 12 12 8 8 10 10 6 6 6 4 4 3 3 2 2 1 1 1 0 1 1 0 0 0 -0 0 -0 -0 -0 0 1 1 1 1 1 -0 -0 -0 -0 -0 -0 0
13 14 16 11 10 9 10 14 11 9 9 11 10 9 6 6 6 3 3 3 2 2 2 1 1 1 1 1 0 0 0 -0 -0 -0 0 0 -0 1 2 2 2 1 1 0 -0 0 1 1 1
14 16 14 12 10 10 10 12 9 8 9 10 10 9 9 8 7 5 4 3 2 2 2 2 1 1 1 1 0 1 1 1 0 1 1 1 0 0 2 2 2 1 1 1 0 0 1 1 1
15 15 14 13 11 11 12 12 10 9 8 10 11 10 10 9 8 7 5 5 4 2 2 2 2 2 2 2 2 2 2 2 1 1 1 1 1 0 1 1 2 2 1 1 0 1 0 1 1
12 13 13 11 10 11 12 12 11 9 10 11 7 11 10 10 8 8 7 7 8 4 3 2 2 2 3 3 3 3 2 3 2 1 0 1 1 0 0 0 1 1 2 2 1 1 2 2 1
12 13 13 11 10 11 12 12 11 11 10 10 10 8 10 10 9 8 8 7 5 4 2 2 2 3 2 2 1 1 1 1 1 1 1 1 1 1 1 2 2 1 1 2 2 2 2 2 2
12 13 13 12 11 11 13 13 12 11 10 9 10 10 9 9 9 8 8 7 3 3 3 2 2 2 1 1 1 1 1 2 1 1 2 1 1 -0 -0 -0 0 0 1 1 1 1 2 3 1
14 10 10 11 13 16 13 17 14 13 11 10 10 10 9 9 8 9 8 7 3 3 2 2 2 2 1 1 1 2 3 3 3 4 3 1 1 -0 -0 -0 -0 -0 0 1 1 0 1 1 3
11 10 11 11 14 16 15 17 15 13 12 11 10 9 9 9 8 8 8 5 4 4 4 3 2 2 1 1 1 2 5 6 5 4 5 2 0 -0 -0 -0 -0 -0 -0 0 0 1 1 1 2
9 12 13 15 16 18 16 16 16 14 13 11 10 8 7 8 8 8 7 5 3 4 6 5 5 6 6 6 6 6 7 6 5 3 2 2 2 1 -0 -0 -0 -0 -0 0 0 0 1 1 1
12 15 18 19 19 19 15 16 15 12 9 9 9 9 9 9 8 9 8 6 4 5 7 7 7 8 7 7 6 6 3 2 2 2 2 2 2 1 0 -0 0 -0 -0 -0 -0 0 1 1 1
12 15 18 20 20 18 14 17 14 9 8 8 8 9 9 9 8 7 6 5 4 4 6 6 6 5 5 4 3 2 2 2 2 2 2 2 2 2 1 -0 -0 -0 -0 -0 -0 0 1 1 1
13 14 13 17 17 18 16 14 11 9 9 8 9 9 9 9 8 8 7 6 6 6 6 6 6 6 5 4 3 2 2 2 2 2 2 2 2 1 1 1 1 1 1 1 1 1 1 1 1
10 10 15 15 20 21 17 16 15 13 11 9 10 10 10 10 10 9 8 7 7 7 7 6 5 5 4 3 2 2 2 2 2 3 3 2 2 1 2 2 2 1 1 2 2 2 2 1 1
12 14 13 14 16 20 21 17 12 11 10 10 9 9 9 10 10 9 8 7 7 6 6 5 4 4 3 3 3 3 3 3 2 2 2 2 2 2 2 2 2 2 2 2 2 2 2 1 1
11 13 13 17 19 17 17 16 9 9 9 8 9 7 7 8 9 9 8 7 6 5 5 5 4 4 4 4 4 4 4 3 3 2 3 3 3 3 3 2 2 2 2 2 2 2 2 1 2